Home > Weather > Vestby > Past weeks

Flag for Norway Past Weather in Vestby, Norway — Yesterday and Last 2 Weeks

Now
52 °F

Overcast.


Feels Like: 47 °F
Forecast: 47 / 62 °F
Wind: 13 mph from North

Location: Rygge

Current Time: May 24, 2016 at 8:19:11 AM

Latest Report: May 24, 2016 at 7:50 AM


Visibility: N/A

Pressure: 30.01 "Hg

Humidity: 82%

Dew Point: 46 °F

Location of VestbyLocation

Past Weather in Vestby — Graph

°F

Vestby Temperature Yesterday

Maximum temperature yesterday: 59 °F (at 11:50 AM)
Minimum temperature yesterday: 54 °F (at 6:20 PM)
Average temperature yesterday: 56 °F

High & Low Weather Summary for the Past Weeks

 TemperatureHumidityPressure
High75 °F (May 9, 2:50 PM)100% (May 17, 3:20 AM)30.33 "Hg (May 17, 3:20 AM)
Low39 °F (May 17, 2:50 AM)25% (May 9, 4:20 PM)29.65 "Hg (May 13, 4:20 PM)
Average54 °F69%29.85 "Hg
* Reported May 9 6:20 AM — May 24 6:50 AM, Vestby, Weather by CustomWeather, © 2016

Note: Actual official high and low records may vary slightly from our data, if they occured in-between our weather recording intervals... More about our weather records

Advertising

Vestby Weather History for the Previous 24 Hours

Scroll right to see more
 ConditionsComfort  
Time TempWeatherWind HumidityBarometerVisibility
6:50 AM
Tue, May 24
52 °FOvercast.12 mph82%29.98 "HgN/A
6:20 AM50 °FOvercast.10 mph94%29.98 "HgN/A
4:20 AM52 °FOvercast.9 mph88%29.98 "HgN/A
3:50 AM52 °FOvercast.9 mph94%29.95 "HgN/A
3:20 AM52 °FOvercast.8 mph100%29.95 "HgN/A
2:50 AM54 °FLow clouds.7 mph94%29.95 "HgN/A
2:20 AM54 °FLow clouds.9 mph94%29.95 "HgN/A
1:50 AM54 °FLow clouds.8 mph100%29.95 "HgN/A
1:20 AM55 °FOvercast.5 mph94%29.95 "Hg0 mi
12:50 AM54 °FFog.3 mph100%29.92 "Hg0 mi
12:20 AM54 °FFog.2 mph100%29.92 "Hg0 mi
11:50 PM
Mon, May 23
54 °FFog.3 mph100%29.92 "Hg0 mi
11:20 PM54 °FFog.1 mph100%29.92 "Hg0 mi
10:50 PM54 °FFog.No wind100%29.92 "Hg0 mi
10:20 PM54 °FFog.2 mph100%29.92 "Hg1 mi
9:50 PM54 °FFog.2 mph100%29.89 "Hg1 mi
9:20 PM54 °FLow clouds.2 mph100%29.89 "Hg4 mi
8:50 PM54 °FLow clouds.2 mph100%29.89 "Hg4 mi
8:20 PM54 °FLow clouds.1 mph100%29.89 "Hg4 mi
7:50 PM54 °FFog.3 mph100%29.89 "Hg1 mi
7:20 PM54 °FFog.7 mph100%29.89 "Hg1 mi
6:50 PM54 °FDense fog.6 mph100%29.86 "Hg1 mi
6:20 PM54 °FFog.6 mph100%29.86 "Hg0 mi
5:50 PM55 °FFog.5 mph100%29.86 "Hg1 mi
5:20 PM55 °FFog.5 mph94%29.86 "Hg1 mi
4:20 PM55 °FFog.8 mph94%29.86 "Hg2 mi
3:50 PM55 °FDrizzle. Fog.6 mph100%29.86 "Hg3 mi
3:20 PM57 °FDrizzle. Partly sunny.8 mph94%29.86 "Hg3 mi
2:50 PM55 °FDrizzle. Partly sunny.7 mph100%29.83 "Hg2 mi
2:20 PM55 °FLight rain. Dense fog.6 mph100%29.83 "Hg1 mi
1:50 PM55 °FDrizzle. Low clouds.6 mph100%29.83 "Hg1 mi
1:20 PM57 °FFog.6 mph94%29.83 "Hg1 mi
12:50 PM57 °FFog.8 mph94%29.80 "Hg2 mi
12:20 PM59 °FCloudy.6 mph88%29.80 "Hg3 mi
11:50 AM59 °FLow clouds.6 mph88%29.80 "HgN/A
11:20 AM57 °FLight rain. Mostly cloudy.3 mph100%29.80 "HgN/A
10:50 AM57 °FPartly sunny.5 mph100%29.80 "HgN/A
10:20 AM57 °FPartly sunny.6 mph100%29.77 "Hg6 mi
9:50 AM57 °FLight rain. Partly sunny.5 mph100%29.77 "Hg4 mi
9:20 AM57 °FPartly sunny.6 mph94%29.77 "Hg5 mi
8:50 AM57 °FPassing clouds.7 mph94%29.77 "Hg5 mi
8:20 AM57 °FLight rain. Partly sunny.7 mph94%29.74 "Hg6 mi
Weather by CustomWeather, © 2016

See weather overviewHow to use our weather pages